www.pogodaiklimat.ru

Погода и климат >> Архив погоды >> Бразилия >> Calcanhar


ПОГОДА в Calcanhar

  • Прогноз погоды в Calcanhar
  • Монитор погоды в Calcanhar
  • Климат города

АРХИВ ПОГОДЫ в Calcanhar

Время (UTC), дата Ветер
(напр.,м/с)
 
Видим.   Явления Облачность Т
(С)
Тd
(С)
f
(%)
Тe
(С)
Тes
(С)
Комфортность P
(гПа)
Po
(гПа)
Тmin
(С)
Tmax
(С)
R
(мм)
R24
(мм)
S
(см)
22 13.09 С 4
{7}
н/о н/о +25.3 +21 +21 комфорт 1013.6 1012.5
23 13.09 С 4
{6}
н/о н/о +25.0 +21 +21 комфорт 1014.0 1012.9
00 14.09 С 4
{6}
н/о н/о +24.8 +21 +21 комфорт 1014.6 1013.5
02 14.09 С 3
{6}
н/о н/о +23.6 +20 +20 1014.7 1013.6
01 14.09 С 4
{6}
н/о н/о +24.8 +21 +21 комфорт 1014.8 1013.7
03 14.09 С 4
{5}
н/о н/о +23.1 +19 +19 1014.1 1013.0
04 14.09 С 3
{5}
н/о н/о +22.5 +19 +19 1013.2 1012.1
05 14.09 С 4
{5}
н/о н/о +22.3 +19 +19 1012.5 1011.4
06 14.09 С 4
{5}
н/о н/о +21.9 +19 +19 1012.4 1011.2
08 14.09 С 3
{5}
н/о н/о +21.6 +19 +19 1012.7 1011.5
07 14.09 С 3
{5}
н/о н/о +21.7 +19 +19 1012.5 1011.3
09 14.09 С 3
{5}
н/о н/о +21.6 +19 +19 1013.1 1011.9
10 14.09 С 4
{6}
н/о н/о +23.9 +20 +20 1013.4 1012.3
11 14.09 С 4
{6}
н/о н/о +26.4 +22 +22 комфорт 1013.5 1012.4
12 14.09 С 5
{8}
н/о н/о +28.3 +23 +23 комфорт 1013.9 1012.8
14 14.09 С 5
{8}
н/о н/о +29.2 +3.6 20 +27 +27 жарко 1013.1 1012.0
13 14.09 С 5
{8}
н/о н/о +28.4 -6.0 10 +25 +25 комфорт 1013.7 1012.6
15 14.09 С 6
{8}
н/о н/о +29.3 -4.2 11 +26 +26 жарко 1012.2 1011.1
16 14.09 С 6
{8}
н/о н/о +29.3 +16.7 47 +33 +33 душно 1011.3 1010.2
17 14.09 С 6
{8}
н/о н/о +28.4 -2.0 14 +26 +26 жарко 1010.6 1009.5
18 14.09 С 6
{8}
н/о н/о +27.6 +17.2 53 +32 +32 очень
душно
1010.5 1009.4
20 14.09 С 5
{9}
н/о н/о +26.2 +22 +22 комфорт 1010.6 1009.5
19 14.09 С 6
{8}
н/о н/о +27.0 +26.0 94 +40 +40 очень
душно
1010.2 1009.1
21 14.09 С 4
{7}
н/о н/о +25.5 +21 +21 комфорт 1011.2 1010.1
22 14.09 С 4
{7}
н/о н/о +25.4 +21 +21 комфорт 1011.6 1010.5
23 14.09 С 4
{7}
н/о н/о +25.5 +21 +21 комфорт 1012.2 1011.1
00 15.09 С 4
{6}
н/о н/о +25.4 +21 +21 комфорт 1012.6 1011.5
02 15.09 С 5
{7}
н/о н/о +25.5 +21 +21 комфорт 1012.4 1011.3
01 15.09 С 5
{7}
н/о н/о +25.7 +21 +21 комфорт 1012.6 1011.5
03 15.09 С 5
{7}
н/о н/о +25.3 +21 +21 комфорт 1012.1 1011.0
04 15.09 С 5
{7}
н/о н/о +25.2 +21 +21 комфорт 1011.5 1010.4
05 15.09 С 5
{7}
н/о н/о +25.1 +21 +21 комфорт 1011.3 1010.2
06 15.09 С 4
{7}
н/о н/о +25.1 +21 +21 комфорт 1011.5 1010.4
08 15.09 С 3
{6}
н/о н/о +24.1 +20 +20 1011.9 1010.8
07 15.09 С 4
{6}
н/о н/о +25.0 +21 +21 комфорт 1011.8 1010.7
09 15.09 С 2
{4}
н/о н/о +22.4 +19 +19 1012.8 1011.7
10 15.09 С 2
{3}
н/о н/о +23.7 +20 +20 1013.6 1012.5
11 15.09 С 4
{6}
н/о н/о +26.9 +22 +22 комфорт 1014.3 1013.2
12 15.09 С 5
{7}
н/о н/о +28.2 +23 +23 комфорт 1014.5 1013.4
14 15.09 С 5
{7}
н/о н/о +28.9 -0.8 14 +26 +26 жарко 1013.7 1012.6
13 15.09 С 5
{7}
н/о н/о +28.7 +15.2 44 +31 +31 жарко 1014.5 1013.4
15 15.09 С 5
{7}
н/о н/о +28.8 +21.2 64 +36 +36 очень
душно
1012.6 1011.5
16 15.09 С 5
{7}
н/о н/о +28.3 +23 +23 комфорт 1012.1 1011.0
17 15.09 С 5
{8}
н/о н/о +28.4 +21.8 67 +36 +36 очень
душно
1011.4 1010.3
18 15.09 С 5
{7}
н/о н/о +28.4 +12.3 37 +30 +30 жарко 1011.2 1010.1
20 15.09 С 4
{7}
н/о н/о +26.7 -13.5 6 +23 +23 комфорт 1011.8 1010.7
19 15.09 С 5
{7}
н/о н/о +27.3 +22.6 76 +36 +36 очень
душно
1011.5 1010.4
21 15.09 С 3
{6}
н/о н/о +25.9 +5.2 26 +25 +25 комфорт 1012.3 1011.2
22 15.09 С 3
{6}
н/о н/о +25.5 +21 +21 комфорт 1012.5 1011.4
23 15.09 С 3
{5}
н/о н/о +25.5 +21 +21 комфорт 1013.3 1012.2
00 16.09 С 3
{6}
н/о н/о +25.3 +21 +21 комфорт 1013.9 1012.8
02 16.09 С 3
{4}
н/о н/о +24.2 +20 +20 1014.0 1012.9
01 16.09 С 3
{5}
н/о н/о +24.9 +21 +21 комфорт 1014.0 1012.9
03 16.09 С 2
{4}
н/о н/о +24.1 +20 +20 1013.2 1012.1
04 16.09 С 3
{6}
н/о н/о +24.3 +20 +20 1012.4 1011.3
05 16.09 С 3
{5}
н/о н/о +24.9 +21 +21 комфорт 1011.7 1010.6
06 16.09 С 3
{5}
н/о н/о +24.2 +20 +20 1011.5 1010.4
08 16.09 С 2
{4}
н/о н/о +22.8 +19 +19 1011.6 1010.5
07 16.09 С 2
{5}
н/о н/о +23.8 +20 +20 1011.6 1010.5
09 16.09 С 2
{4}
н/о н/о +23.2 +19 +19 1012.0 1010.9
10 16.09 С 2
{3}
н/о н/о +23.9 +20 +20 1012.9 1011.8
11 16.09 С 3
{8}
н/о н/о +24.9 +21 +21 комфорт 1013.5 1012.4
12 16.09 С 5
{7}
н/о н/о +25.9 +22 +22 комфорт 1014.0 1012.9
14 16.09 С 5
{7}
н/о н/о +28.6 +24 +24 комфорт 1013.3 1012.2
13 16.09 С 4
{7}
н/о н/о +28.0 +23 +23 комфорт 1013.8 1012.7
15 16.09 С 5
{7}
н/о н/о +28.5 +24 +24 комфорт 1012.4 1011.3
16 16.09 С 5
{7}
н/о н/о +28.9 +24 +24 комфорт 1011.9 1010.8
17 16.09 С 4
{7}
н/о н/о +28.9 +24 +24 комфорт 1011.3 1010.2
18 16.09 С 4
{7}
н/о н/о +28.3 +23 +23 комфорт 1011.2 1010.1
20 16.09 С 4
{7}
н/о н/о +26.5 +22 +22 комфорт 1011.3 1010.2
19 16.09 С 4
{7}
н/о н/о +27.7 +23 +23 комфорт 1011.0 1009.9
21 16.09 С 3
{6}
н/о н/о +26.0 +22 +22 комфорт 1011.9 1010.8
22 16.09 С 3
{5}
н/о н/о +25.9 +22 +22 комфорт 1012.7 1011.6
23 16.09 С 3
{5}
н/о н/о +25.8 +21 +21 комфорт 1013.4 1012.3
00 17.09 С 4
{6}
н/о н/о +26.0 +22 +22 комфорт 1013.7 1012.6
02 17.09 С 4
{6}
н/о н/о +25.8 +21 +21 комфорт 1013.0 1011.9
01 17.09 С 5
{6}
н/о н/о +25.9 +22 +22 комфорт 1013.5 1012.4
03 17.09 С 4
{6}
н/о н/о +25.8 +21 +21 комфорт 1012.5 1011.4
04 17.09 С 4
{6}
н/о н/о +25.7 +21 +21 комфорт 1012.0 1010.9
05 17.09 С 4
{6}
н/о н/о +25.7 +21 +21 комфорт 1011.7 1010.6
06 17.09 С 4
{6}
н/о н/о +25.6 +21 +21 комфорт 1011.6 1010.5
08 17.09 С 5
{7}
н/о н/о +25.6 +21 +21 комфорт 1012.1 1011.0
07 17.09 С 5
{6}
н/о н/о +25.6 +21 +21 комфорт 1011.9 1010.8
09 17.09 С 4
{6}
н/о н/о +26.0 +22 +22 комфорт 1012.7 1011.6
10 17.09 С 4
{6}
н/о н/о +27.3 +23 +23 комфорт 1013.2 1012.1
11 17.09 С 5
{7}
н/о н/о +28.0 +23 +23 комфорт 1013.7 1012.6
12 17.09 С 5
{8}
н/о н/о +28.8 +24 +24 комфорт 1014.1 1013.0
14 17.09 С 5
{8}
н/о н/о +29.5 +24 +24 комфорт 1013.0 1011.9
13 17.09 С 5
{7}
н/о н/о +29.0 +24 +24 комфорт 1013.9 1012.8
15 17.09 С 6
{8}
н/о н/о +29.3 +24 +24 комфорт 1012.3 1011.2
16 17.09 С 5
{8}
н/о н/о +29.4 +24 +24 комфорт 1011.8 1010.7
17 17.09 С 5
{7}
н/о н/о +29.0 +24 +24 комфорт 1011.3 1010.2
18 17.09 С 5
{7}
н/о н/о +28.4 +23 +23 комфорт 1010.5 1009.4
20 17.09 С 4
{7}
н/о н/о +26.9 +22 +22 комфорт 1010.9 1009.8
19 17.09 С 5
{8}
н/о н/о +27.7 +23 +23 комфорт 1010.4 1009.3
21 17.09 С 4
{7}
н/о н/о +26.2 +22 +22 комфорт 1011.2 1010.1
22 17.09 С 4
{6}
н/о н/о +25.8 +21 +21 комфорт 1011.7 1010.6
23 17.09 С 4
{7}
н/о н/о +26.0 +22 +22 комфорт 1012.4 1011.3
00 18.09 С 4
{7}
н/о н/о +25.8 +21 +21 комфорт 1013.2 1012.1
02 18.09 С 5
{7}
н/о н/о +25.8 +21 +21 комфорт 1013.3 1012.2
01 18.09 С 4
{7}
н/о н/о +25.9 +22 +22 комфорт 1013.8 1012.7
03 18.09 С 4
{7}
н/о н/о +25.7 +21 +21 комфорт 1012.7 1011.6
04 18.09 С 4
{7}
н/о н/о +25.7 +21 +21 комфорт 1012.0 1010.9
05 18.09 С 4
{6}
н/о н/о +25.5 +21 +21 комфорт 1011.9 1010.8
06 18.09 С 4
{6}
н/о н/о +25.6 +21 +21 комфорт 1011.6 1010.5
08 18.09 С 3
{9}
н/о н/о +25.0 +21 +21 комфорт 1012.0 1010.9
07 18.09 С 3
{7}
н/о н/о +24.4 +20 +20 1011.9 1010.8
09 18.09 С 5
{7}
н/о н/о +25.8 +21 +21 комфорт 1012.6 1011.5
10 18.09 С 5
{7}
н/о н/о +26.9 +22 +22 комфорт 1013.0 1011.9
11 18.09 С 5
{8}
н/о н/о +27.3 +23 +23 комфорт 1013.7 1012.6
12 18.09 С 6
{8}
н/о н/о +28.5 +24 +24 комфорт 1013.9 1012.8
14 18.09 С 6
{8}
н/о н/о +28.8 +24 +24 комфорт 1013.3 1012.2
13 18.09 С 6
{8}
н/о н/о +29.0 +24 +24 комфорт 1013.7 1012.6
15 18.09 С 6
{8}
н/о н/о +29.8 +25 +25 комфорт 1012.4 1011.3
16 18.09 С 6
{8}
н/о н/о +29.2 +24 +24 комфорт 1011.4 1010.3
17 18.09 С 6
{8}
н/о н/о +28.5 +24 +24 комфорт 1010.5 1009.4
18 18.09 С 6
{8}
н/о н/о +28.0 +23 +23 комфорт 1010.5 1009.4
20 18.09 С 5
{8}
н/о н/о +26.6 +22 +22 комфорт 1010.9 1009.8
19 18.09 С 5
{8}
н/о н/о +27.4 +23 +23 комфорт 1010.5 1009.4
21 18.09 С 4
{7}
н/о н/о +26.2 +22 +22 комфорт 1011.4 1010.3
22 18.09 С 4
{7}
н/о н/о +26.2 +22 +22 комфорт 1011.9 1010.8
23 18.09 С 4
{6}
н/о н/о +26.2 +22 +22 комфорт 1012.5 1011.4
00 19.09 С 5
{8}
н/о н/о +26.2 +22 +22 комфорт 1013.0 1011.9
02 19.09 С 4
{7}
н/о н/о +25.8 +21 +21 комфорт 1012.8 1011.7
01 19.09 С 5
{8}
н/о н/о +26.1 +22 +22 комфорт 1013.1 1012.0
03 19.09 С 4
{6}
н/о н/о +26.0 +22 +22 комфорт 1011.9 1010.8
04 19.09 С 5
{7}
н/о н/о +26.0 +22 +22 комфорт 1011.2 1010.1
05 19.09 С 4
{7}
н/о н/о +25.5 +21 +21 комфорт 1011.1 1010.0
06 19.09 С 3
{5}
н/о н/о +25.1 +21 +21 комфорт 1010.9 1009.8
08 19.09 С 4
{6}
н/о н/о +25.4 +21 +21 комфорт 1011.3 1010.2
07 19.09 С 3
{5}
н/о н/о +24.6 +21 +21 комфорт 1011.2 1010.1
09 19.09 С 3
{6}
н/о н/о +25.7 +21 +21 комфорт 1012.2 1011.1
10 19.09 С 5
{6}
н/о н/о +26.4 +22 +22 комфорт 1012.9 1011.8
11 19.09 С 5
{7}
н/о н/о +28.4 +23 +23 комфорт 1013.7 1012.6
12 19.09 С 5
{8}
н/о н/о +28.8 +24 +24 комфорт 1014.4 1013.3
14 19.09 С 5
{7}
н/о н/о +28.9 +24 +24 комфорт 1014.0 1012.9
13 19.09 С 5
{8}
н/о н/о +28.3 +23 +23 комфорт 1014.5 1013.4
15 19.09 С 5
{7}
н/о н/о +28.9 +24 +24 комфорт 1013.3 1012.2
16 19.09 С 5
{7}
н/о н/о +29.6 +25 +25 комфорт 1012.5 1011.4
17 19.09 С 5
{7}
н/о н/о +29.1 +27.1 89 +46 +46 опасность
перегрева
1012.0 1010.9
18 19.09 С 5
{8}
н/о н/о +28.2 +23 +23 комфорт 1011.9 1010.8
20 19.09 С 5
{7}
н/о н/о +26.6 +22 +22 комфорт 1013.0 1011.9
19 19.09 С 6
{8}
н/о н/о +26.9 +22 +22 комфорт 1012.4 1011.3
21 19.09 С 4
{7}
н/о н/о +26.2 +22 +22 комфорт 1013.4 1012.3
22 19.09 С 4
{6}
н/о н/о +25.9 +22 +22 комфорт 1014.2 1013.1
23 19.09 С 4
{6}
н/о н/о +25.6 +21 +21 комфорт 1015.0 1013.9
00 20.09 С 4
{6}
н/о н/о +25.5 +21 +21 комфорт 1015.4 1014.3
02 20.09 С 3
{6}
н/о н/о +25.5 +21 +21 комфорт 1015.2 1014.1
01 20.09 С 4
{6}
н/о н/о +25.8 +21 +21 комфорт 1015.7 1014.6
03 20.09 С 4
{6}
н/о н/о +25.6 +21 +21 комфорт 1014.1 1013.0
04 20.09 С 4
{6}
н/о н/о +25.6 +21 +21 комфорт 1013.1 1012.0
05 20.09 С 4
{6}
н/о н/о +25.6 +21 +21 комфорт 1012.4 1011.3
06 20.09 С 4
{6}
н/о н/о +24.9 +21 +21 комфорт 1012.2 1011.1
08 20.09 С 2
{5}
н/о н/о +23.4 +19 +19 1013.2 1012.1
07 20.09 С 3
{5}
н/о н/о +24.7 +21 +21 комфорт 1012.7 1011.6
09 20.09 С 2
{3}
н/о н/о +23.5 +20 +20 1014.2 1013.1
10 20.09 С 3
{4}
н/о н/о +24.9 +21 +21 комфорт 1014.7 1013.6
11 20.09 С 3
{6}
н/о н/о +26.3 +22 +22 комфорт 1015.4 1014.3
12 20.09 С 5
{7}
н/о н/о +28.8 +24 +24 комфорт 1015.6 1014.5
14 20.09 С 6
{8}
н/о н/о +29.4 +24 +24 комфорт 1014.5 1013.4
13 20.09 С 5
{7}
н/о н/о +28.6 +24 +24 комфорт 1015.3 1014.2
15 20.09 С 6
{8}
н/о н/о +29.5 +24 +24 комфорт 1013.6 1012.5
16 20.09 С 5
{8}
н/о н/о +29.2 +24 +24 комфорт 1012.5 1011.4
17 20.09 С 6
{8}
н/о н/о +28.6 +24 +24 комфорт 1011.9 1010.8
18 20.09 С 6
{8}
н/о н/о +27.9 +23 +23 комфорт 1011.8 1010.7
20 20.09 С 5
{7}
н/о н/о +26.5 +22 +22 комфорт 1012.6 1011.5
19 20.09 С 5
{7}
н/о н/о +27.4 +23 +23 комфорт 1012.1 1011.0
21 20.09 С 5
{8}
н/о н/о +26.2 +22 +22 комфорт 1013.0 1011.9

 

Местоположение метеостанции Calcanhar (Бразилия): широта -5.17 долгота -35.48 высота над уровнем моря 19 м.

В архиве по умолчанию представлена погода в Calcanhar за последнюю неделю. Архивные данные за месяц целиком и за предыдущие месяцы, начиная с января 2011 года, Вы можете получить, выбрав интересующий диапазон дат из раскрывающегося списка и нажав кнопку "Ввод!".


*Определитесь, кто Вы:
робот инопланетянин человек

Внимание! Время в таблицах - всемирное. Для получения местного времени необходимо прибавить поправку, которая в Calcanhar равна -3 ч.

Смотрите также архив погоды в соседних городах и на ближайших метеорологических станциях:

Погода в Natal (Бразилия) (80 км)
Погода в Natal (Бразилия) (87 км)
Погода в Macau (Бразилия) (128 км)
Погода в Santa Cruz (Бразилия) (133 км)
Погода в Macau (Бразилия) (137 км)
Погода в Camaratuba (Бразилия) (166 км)
Погода в Areia (Бразилия) (201 км)
Погода в Mossoro (Бразилия) (210 км)
Погода в Caico (Бразилия) (229 км)
Погода в Joao Pessoa (Бразилия) (231 км)

Пояснения к столбцам:

Ветер - указаны скорость ветра в м/с - средняя за 10 мин, порывы в срок и между сроками (в фигурных скобках) и направление, откуда дует ветер: С - северный, СВ - северо-восточный, В - восточный, ЮВ - юго-восточный, Ю - южный, ЮЗ - юго-западный, З - западный, СЗ - северо-западный.
Видимость - горизонтальная дальность видимости в метрах или километрах. При видимости от 1 до 10 км при отсутствии осадков обычно наблюдается дымка, при ухудшении видимости до 1 км и менее - туман. В сухую погоду видимость может ухудшаться дымом, пылью или мглою.
Явления - указаны атмосферные явления, наблюдавшиеся в срок или в последний час перед сроком; фигурными скобками обозначены явления, наблюдавшиеся между сроками (за 1-3 часа до срока); квадратными скобками обозначены град или гололедные отложения с указанием их диаметра в мм.
Облачность - указаны через наклонную черту общая и нижняя облачность в баллах и высота нижней границы облаков в метрах; квадратными скобками обозначены формы облаков: Ci - перистые, Cs - перисто-слоистые, Cc - перисто-кучевые, Ac - высококучевые, As - высокослоистые, Sc - слоисто-кучевые, Ns - слоисто-дождевые, Cu - кучевые, Cb - кучево-дождевые. Подробнее классификацию облаков см. в Атласе облаков (PDF).
T - Температура воздуха - температура, измеренная на высоте 2 м над землей.
Td - Температура точки росы - температура, при понижении до которой содержащийся в воздухе водяной пар достигнет насыщения.
f - Относительная влажность воздуха - влажноcть воздуха, измеренная на высоте 2 м над землей.
Te - Эффективная температура - температура, которую ощущает одетый по сезону человек в тени. Характеристика душности погоды. При расчете учитывается влияние влажности воздуха и скорости ветра на теплоощущения человека.
Tes - Эффективная температура на солнце - температура, которую ощущает человек, с поправкой на солнечный нагрев. Характеристика знойности погоды. Зависит от высоты солнца над горизонтом, облачности и скорости ветра. Ночью, в пасмурную погоду, а также при ветре 12 м/с и более поправка равна нулю.
P - Атмосферное давление - приведенное к уровню моря атмосферное давление.
Po - Атмосферное давление - измеренное на уровне метеостанции атмосферное давление.
Tmin - Минимальная температура - минимум температуры воздуха на высоте 2 м над землей.
Tmax - Максимальная температура - максимум температуры воздуха на высоте 2 м над землей.
R - Количество осадков - Количество выпавших осадков за период времени, мм. При наведении курсора мыши на число - период времени, за который выпало указанное количество осадков.
R24 - Количество осадков - Количество выпавших осадков за 24 часа, мм.
S - Снежный покров - Высота снежного покрова, см. При наведении курсора мыши на число - состояние снежного покрова и степень покрытия местности в баллах.